SCP
0 0 0 0 0 0 0 0 0 0 0 0 0 0 0 0 0 0 0 0 0 0 0 0 0 0 0 0 0 0 0 0 0 0 0 0 0 0 0 0 0 0 0 0
0 0 0 0 0 0 0 0 0 0 0 0 0 0 0 0 0 0 0 0 0 0 0 0 0 0 0 0 0 0 0 0 0 0 0 0 0 0 0 0 0 0 0 0
0 0 0 0 0 0 0 0 0 0 0 0 0 0 0 0 0 0 0 0 0 0 0 0 0 0 0 0 0 0 0 0 0 0 0 0 0 0 0 0 0 0 0 0
0 0 0 0 0 0 0 0 0 0 0 0 0 0 0 0 0 0 0 0 0 0 0 0 0 0 0 0 0 0 0 0 0 0 0 0 0 0 0 0 0 0 0 0
0 0 0 0 0 0 0 0 0 0 0 0 0 0 0 0 0 0 0 0 0 0 0 0 0 0 0 0 0 0 0 0 0 0 0 0 0 0 0 0 0 0 0 0
0 0 0 0 0 0 0 0 0 0 0 0 0 0 0 0 0 0 0 0 0 0 0 0 0 0 0 0 0 0 0 0 0 0 0 0 0 0 0 0 0 0 0 0
0 0 0 0 0 0 0 0 0 0 0 0 0 0 0 0 0 0 0 0 0 0 0 0 0 0 0 0 0 0 0 0 0 0 0 0 0 0 0 0 0 0 0 0
0 0 0 0 0 0 0 0 0 0 0 0 0 0 0 0 0 0 0 0 0 0 0 0 0 0 0 0 0 0 0 0 0 0 0 0 0 0 0 0 0 0 0 0
0 0 0 0 0 0 0 0 0 0 0 0 0 0 0 0 0 0 0 0 0 0 0 0 0 0 0 0 0 0 0 0 0 0 0 0 0 0 0 0 0 0 0 0
0 0 0 0 0 0 0 0 0 0 0 0 0 0 0 0 0 0 0 0 0 0 0 0 0 0 0 0 0 0 0 0 0 0 0 0 0 0 0 0 0 0 0 0
0 0 0 0 0 0 0 0 0 0 0 0 0 0 0 0 0 0 0 0 0 0 0 0 0 0 0 0 0 0 0 0 0 0 0 0 0 0 0 0 0 0 0 0
0 0 0 0 0 0 0 0 0 0 0 0 0 0 0 0 0 0 0 0 0 0 0 0 0 0 0 0 0 0 0 0 0 0 0 0 0 0 0 0 0 0 0 0
0 0 0 0 0 0 0 0 0 0 0 0 0 0 0 0 0 0 0 0 0 0 0 0 0 0 0 0 0 0 0 0 0 0 0 0 0 0 0 0 0 0 0 0
0 0 0 0 0 0 0 0 0 0 0 0 0 0 0 0 0 0 0 0 0 0 0 0 0 0 0 0 0 0 0 0 0 0 0 0 0 0 0 0 0 0 0 0
0 0 0 0 0 0 0 0 0 0 0 0 0 0 0 0 0 0 0 0 0 0 0 0 0 0 0 0 0 0 0 0 0 0 0 0 0 0 0 0 0 0 0 0
0 0 0 0 0 0 0 0 0 0 0 0 0 0 0 0 0 0 0 0 0 0 0 0 0 0 0 0 0 0 0 0 0 0 0 0 0 0 0 0 0 0 0 0
0 0 0 0 0 0 0 0 0 0 0 0 0 0 0 0 0 0 0 0 0 0 0 0 0 0 0 0 0 0 0 0 0 0 0 0 0 0 0 0 0 0 0 0
0 0 0 0 0 0 0 0 0 0 0 0 0 0 0 0 0 0 0 0 0 0 0 0 0 0 0 0 0 0 0 0 0 0 0 0 0 0 0 0 0 0 0 0
0 0 0 0 0 0 0 0 0 0 0 0 0 0 0 0 0 0 0 0 0 0 0 0 0 0 0 0 0 0 0 0 0 0 0 0 0 0 0 0 0 0 0 0
0 0 0 0 0 0 0 0 0 0 0 0 0 0 0 0 0 0 0 0 0 0 0 0 0 0 0 0 0 0 0 0 0 0 0 0 0 0 0 0 0 0 0 0
0 0 0 0 0 0 0 0 0 0 0 0 0 0 0 0 0 0 0 0 0 0 0 0 0 0 0 0 0 0 0 0 0 0 0 0 0 0 0 0 0 0 0 0
0 0 0 0 0 0 0 0 0 0 0 0 0 0 0 0 0 0 0 0 0 0 0 0 0 0 0 0 0 0 0 0 0 0 0 0 0 0 0 0 0 0 0 0
0 0 0 0 0 0 0 0 0 0 0 0 0 0 0 0 0 0 0 0 0 0 0 0 0 0 0 0 0 0 0 0 0 0 0 0 0 0 0 0 0 0 0 0
0 0 0 0 0 0 0 0 0 0 0 0 0 0 0 0 0 0 0 0 0 0 0 0 0 0 0 0 0 0 0 0 0 0 0 0 0 0 0 0 0 0 0 0
0 0 0 0 0 0 0 0 0 0 0 0 0 0 0 0 0 0 0 0 0 0 0 0 0 0 0 0 0 0 0 0 0 0 0 0 0 0 0 0 0 0 0 0
0 0 0 0 0 0 0 0 0 0 0 0 0 0 0 0 0 0 0 0 0 0 0 0 0 0 0 0 0 0 0 0 0 0 0 0 0 0 0 0 0 0 0 0
0 0 0 0 0 0 0 0 0 0 0 0 0 0 0 0 0 0 0 0 0 0 0 0 0 0 0 0 0 0 0 0 0 0 0 0 0 0 0 0 0 0 0 0
Wind_Speed
12 10 11 14 17 17 19 18 17 19 18 13 8 6 5 5 7 8 9 9 10 10 10 10 10 10 10 11 11 11 12 12 11 11 10 10 10 9 9 8 8 8 8 7
11 11 11 15 18 20 22 22 22 19 19 12 9 5 4 6 8 9 10 10 10 10 11 11 12 12 11 12 12 12 12 11 11 11 10 10 10 9 9 9 8 8 8 8
7 8 9 14 17 20 21 22 22 22 17 9 11 11 9 8 8 9 9 10 11 11 11 11 12 12 13 13 12 12 12 11 11 11 11 10 10 10 10 9 9 8 8 8
5 6 12 9 8 12 17 18 18 18 11 11 13 14 11 8 8 8 7 8 9 10 10 10 10 11 12 12 13 12 12 12 12 12 11 11 10 10 10 9 8 8 8 7
5 7 11 9 8 12 15 15 12 14 13 11 10 11 12 9 9 9 8 8 9 9 9 10 11 12 13 13 13 13 13 13 12 12 12 12 11 11 9 9 8 7 7 7
7 8 10 5 3 6 10 13 10 12 13 11 9 12 12 8 9 10 9 7 7 7 9 10 12 13 14 14 14 14 14 13 12 12 13 12 12 11 9 9 8 8 7 6
12 10 10 6 3 6 10 7 5 10 12 12 14 15 11 8 9 9 10 8 7 8 9 10 12 14 15 14 14 13 13 13 12 12 12 12 11 10 10 9 9 8 8 6
10 12 11 2 3 6 4 4 3 6 9 11 14 15 12 9 8 7 7 8 8 8 8 9 13 15 15 14 13 13 14 13 13 12 11 10 12 11 10 10 10 9 8 7
9 9 5 2 4 5 6 6 7 7 8 9 11 13 11 10 9 8 8 8 8 9 9 10 12 14 15 14 15 15 15 14 13 13 11 11 11 11 10 9 7 7 6 6
10 12 12 10 10 9 8 9 9 10 10 9 10 11 10 9 8 8 8 8 8 9 10 10 11 12 13 15 16 16 16 15 13 13 11 10 8 8 8 7 7 7 6 6
14 14 14 14 11 12 12 12 11 11 11 10 10 10 9 8 8 7 7 7 9 10 11 11 12 12 14 16 17 17 16 14 13 11 11 10 8 6 6 6 6 7 6 6
14 12 11 14 14 14 14 14 13 12 12 11 10 10 9 8 7 7 7 8 9 10 11 12 13 13 15 16 17 18 15 14 11 10 10 9 10 9 10 9 11 9 8 7
19 17 17 18 19 17 15 15 14 13 13 12 10 9 8 7 6 6 7 9 10 11 11 13 14 14 15 16 16 17 16 14 11 11 10 10 10 10 10 10 11 11 11 10
18 17 19 18 18 17 15 14 13 12 11 10 9 7 6 5 5 7 8 8 9 10 12 13 14 15 15 15 15 15 15 13 12 11 10 10 9 9 9 9 9 7 8 9
19 19 19 17 17 17 14 12 11 11 10 9 7 6 6 6 6 6 7 8 9 11 12 13 14 15 15 15 16 16 14 11 10 10 9 9 9 8 8 9 8 7 7 7
15 15 16 17 18 17 14 13 12 11 9 8 7 6 6 5 5 6 7 9 12 13 13 14 14 15 15 16 16 13 11 14 13 11 10 9 9 8 8 8 7 7 6 6
16 17 16 17 17 16 14 13 13 11 10 8 7 5 4 5 6 7 8 8 8 9 12 13 15 15 15 15 15 12 12 13 15 11 9 9 8 8 8 7 7 6 5 6
17 18 18 17 16 15 14 13 12 11 10 8 6 6 7 9 9 9 9 9 9 10 10 12 14 15 15 14 12 11 11 11 10 10 9 9 8 8 7 7 7 7 6 6
15 16 17 17 16 15 14 13 12 10 8 7 8 8 8 7 8 9 10 11 12 12 11 13 17 16 14 14 13 11 12 12 11 10 9 12 10 8 7 7 7 6 6 5
13 13 14 14 13 13 13 12 10 9 8 8 8 7 7 8 9 10 11 9 6 7 13 15 16 13 14 14 14 11 12 12 12 10 10 9 8 8 7 7 7 6 5 5
12 12 12 11 11 11 11 11 10 10 9 9 9 9 9 9 10 10 11 8 7 11 14 17 12 11 12 13 14 11 11 11 11 10 10 9 9 8 8 7 7 6 5 4
10 10 10 10 9 9 8 8 9 9 9 9 9 9 10 10 10 8 6 6 10 14 12 11 10 14 16 16 11 11 11 11 10 9 9 9 8 8 8 7 6 6 5 4
10 10 10 9 8 7 6 6 8 9 9 10 11 12 11 10 9 9 8 8 11 15 11 10 15 22 22 13 10 11 11 11 10 9 9 8 8 8 7 7 6 5 5 4
9 9 8 6 5 6 6 6 6 6 7 7 8 9 10 9 7 5 7 14 16 16 10 15 23 23 19 10 10 10 10 10 9 9 9 8 7 7 7 6 6 5 4 4
8 7 5 4 5 5 5 6 7 8 8 7 9 9 7 6 7 9 10 13 18 16 12 17 23 20 13 10 10 10 9 9 9 9 8 8 7 7 6 6 5 5 4 3
7 4 3 3 3 4 5 6 6 7 8 8 8 7 7 8 10 11 10 13 16 16 13 11 13 13 10 10 11 10 10 11 10 8 8 8 8 7 6 6 6 4 4 3
4 2 0 1 2 3 5 6 7 7 8 9 10 9 9 10 10 11 13 12 12 11 10 10 10 9 10 10 10 10 9 9 8 8 8 7 6 6 6 6 4 4 3 3
Wind_Direction
259 266 242 236 233 227 227 228 228 229 232 233 237 236 217 190 179 177 174 173 174 172 169 167 165 165 165 163 163 163 164 166 168 166 165 163 163 163 163 164 165 164 163 164
262 255 250 249 235 226 228 230 235 241 241 233 236 235 216 187 177 182 182 181 179 175 173 173 171 168 166 165 164 164 164 163 159 157 157 157 157 155 155 155 155 154 158 159
263 257 257 244 228 219 220 225 228 233 237 228 230 232 225 204 193 193 189 186 187 187 185 179 175 171 169 165 161 163 162 159 159 156 155 155 152 152 154 154 152 152 154 156
262 250 234 234 219 223 228 230 234 237 238 227 231 236 231 220 210 207 197 194 194 193 187 179 170 166 161 159 161 162 161 161 160 158 155 153 154 154 153 152 151 149 150 151
236 242 257 255 232 218 222 229 233 237 237 241 246 246 236 232 233 226 213 206 200 194 183 172 168 162 157 160 162 163 165 164 163 160 156 155 156 154 150 147 143 140 142 144
231 238 242 248 231 230 221 236 236 237 238 238 233 233 234 244 248 243 235 217 199 183 174 171 168 161 161 164 167 170 168 163 160 159 157 156 153 147 143 140 135 131 128 133
231 243 261 283 272 177 200 236 257 236 239 235 228 237 256 252 243 242 234 219 193 178 178 175 166 165 167 168 173 165 156 153 153 155 154 150 144 142 140 134 131 128 125 123
218 230 244 282 186 193 252 310 294 253 247 242 242 249 255 250 243 238 231 211 191 183 179 170 168 169 169 171 160 150 148 148 148 148 143 143 140 138 139 137 134 132 129 123
226 239 273 260 245 278 301 291 296 291 278 264 256 254 256 252 247 240 229 209 192 184 173 170 174 174 168 159 150 148 146 145 142 140 140 143 143 141 140 141 139 140 138 136
252 255 266 273 278 282 288 295 300 300 295 280 266 265 262 252 244 238 228 210 187 177 174 172 173 174 160 150 151 148 145 142 141 139 137 136 134 139 142 146 145 144 145 143
255 264 275 269 268 281 294 300 302 304 295 282 271 270 264 252 243 234 220 201 187 183 178 170 165 160 153 153 151 146 142 140 140 137 136 132 125 123 134 132 144 147 147 147
250 259 267 274 278 286 290 291 292 295 295 289 274 269 265 254 242 227 208 192 185 180 169 162 157 155 156 156 152 146 143 143 141 139 136 133 126 107 82 101 106 106 115 125
255 265 270 277 281 281 279 282 285 284 281 283 280 269 261 257 240 217 197 189 181 171 162 157 154 153 155 156 153 150 146 144 141 141 140 139 136 133 124 105 101 106 114 118
254 260 264 267 272 276 279 283 284 280 278 276 276 269 254 242 222 204 195 185 170 159 156 155 152 152 154 152 148 144 140 138 140 141 141 140 140 139 137 137 133 120 116 120
252 251 257 267 271 273 276 276 273 272 272 273 268 256 236 219 209 199 181 164 155 152 154 153 150 149 151 149 144 141 139 140 138 135 134 135 135 135 134 134 133 133 131 127
257 255 255 259 263 266 266 261 258 260 260 260 258 250 235 214 187 169 167 164 160 160 158 154 150 148 149 146 140 137 134 135 134 134 134 135 137 137 137 138 138 141 144 142
258 257 255 256 258 259 257 254 251 251 250 245 243 234 202 170 160 162 165 167 161 153 153 150 145 144 146 146 140 134 133 135 132 131 135 137 138 138 138 139 140 139 137 144
254 256 255 255 257 258 257 253 249 243 239 233 220 207 191 181 175 167 158 149 138 134 141 143 142 143 144 143 137 133 135 138 138 135 134 135 134 134 135 136 138 138 136 141
261 260 258 255 252 252 252 250 246 239 226 208 201 203 196 185 168 156 151 152 152 149 150 144 142 141 140 140 135 133 134 133 131 130 130 133 131 131 135 137 139 140 141 145
269 267 262 257 252 248 246 244 238 228 213 196 192 187 178 169 158 154 155 157 161 147 143 144 141 139 139 140 135 134 135 135 133 133 133 135 135 136 136 137 139 141 145 149
275 271 266 259 253 247 241 232 222 213 197 187 187 182 170 161 156 154 153 148 138 135 140 141 140 140 140 140 136 134 134 134 135 136 137 137 137 137 139 140 142 145 148 150
279 272 266 258 248 242 235 221 209 197 185 181 174 161 154 154 152 147 143 141 143 145 142 142 141 142 143 139 134 133 133 133 133 134 136 137 140 141 143 144 145 147 150 154
282 272 263 251 239 232 225 207 193 188 182 177 170 165 162 157 155 150 146 144 144 146 140 140 143 143 140 132 130 132 133 134 134 135 136 137 138 140 142 144 145 148 153 156
286 275 266 249 220 205 201 190 173 168 160 156 156 155 151 146 139 126 123 139 142 139 133 139 142 141 134 127 129 130 131 131 131 131 132 131 133 135 138 142 144 148 153 160
294 279 258 222 204 199 179 150 137 136 135 135 136 139 140 136 135 134 132 138 138 132 128 138 139 136 129 126 127 128 129 130 131 132 132 133 135 137 139 142 148 152 158 165
299 287 263 232 204 173 157 150 145 142 140 136 133 132 126 119 122 125 127 132 133 129 128 131 134 130 125 125 124 125 125 128 127 125 129 131 135 138 141 145 151 157 163 170
314 322 356 102 127 143 144 143 142 143 143 141 135 132 129 127 127 128 129 129 128 125 124 124 126 126 125 123 122 122 121 122 123 125 129 131 136 140 144 150 154 158 165 178